Flag for Norway Weather past 2 weeks in Nøtterøy, Norway

Now
50 °F

Sunny.


Feels Like: 46 °F
Forecast: 39 / 54 °F
Wind: 9 mph from Northeast

Location: Torp


UV Index: 0 (Low)

Visibility: 10 mi


Pressure: 30.39 "Hg

Humidity: 47%

Dew point: 30 °F

Location of NøtterøyLocation

Historic Weather in Nøtterøy

°F

Nøtterøy temperature yesterday

Maximum temperature yesterday: 66 °F (at 3:20 PM)
Minimum temperature yesterday: 45 °F (at 4:50 AM)
Average temperature yesterday: 56 °F

Past Weeks' High & Low Weather Summary

 TemperatureHumidityPressure
High66 °F (Apr 22, 3:20 PM)100% (Apr 8, 9:20 AM)30.39 "Hg (Apr 8, 9:20 AM)
Low34 °F (Apr 14, 5:50 AM)26% (Apr 15, 5:20 PM)29.39 "Hg (Apr 13, 4:50 AM)
Average46 °F69%29.93 "Hg
* Reported Apr 8 8:20 AM — Apr 23 8:50 AM, Nøtterøy, Weather by CustomWeather, © 2014

Note: Actual official high and low records may vary slightly from our data, if they occured in-between our weather recording intervals... More about our weather records

Advertising

Historic Weather Conditions — Data for Previous 24 hours

 ConditionsComfort  
Time TempWeatherWind HumidityBarometerVisibility
8:50 AM
Apr 23
48 °FSunny.8 mph50%30.39 "Hg10 mi
8:20 AM48 °FPassing clouds.7 mph50%30.39 "HgN/A
7:50 AM48 °FPassing clouds.8 mph50%30.36 "HgN/A
7:20 AM48 °FSunny.7 mph54%30.36 "Hg10 mi
6:50 AM48 °FSunny.8 mph58%30.36 "Hg10 mi
6:20 AM48 °FClear.8 mph58%30.33 "Hg10 mi
5:50 AM48 °FClear.8 mph66%30.33 "Hg10 mi
5:20 AM48 °FPassing clouds.6 mph71%30.30 "HgN/A
4:50 AM48 °FOvercast.7 mph71%30.27 "HgN/A
4:20 AM50 °FOvercast.7 mph67%30.27 "HgN/A
3:50 AM50 °FPassing clouds.5 mph67%30.27 "HgN/A
3:20 AM52 °FPassing clouds.5 mph62%30.24 "HgN/A
2:50 AM52 °FPassing clouds.6 mph62%30.24 "HgN/A
2:20 AM52 °FPartly cloudy.6 mph62%30.24 "HgN/A
1:50 AM54 °FPassing clouds.3 mph58%30.21 "HgN/A
1:20 AM52 °FOvercast.6 mph62%30.21 "HgN/A
12:50 AM48 °FOvercast.6 mph76%30.21 "HgN/A
12:20 AM52 °FPassing clouds.3 mph62%30.18 "HgN/A
11:50 PM
Apr 22
55 °FPassing clouds.3 mph51%30.18 "HgN/A
11:20 PM55 °FRefreshingly cool.2 mph51%30.18 "HgN/A
10:50 PM55 °FClear.2 mph51%30.18 "Hg10 mi
10:20 PM55 °FClear.2 mph51%30.18 "Hg10 mi
9:50 PM57 °FClear.2 mph48%30.15 "Hg10 mi
9:20 PM59 °FSunny.3 mph45%30.15 "Hg10 mi
8:50 PM61 °FSunny.2 mph42%30.15 "Hg10 mi
8:20 PM63 °FSunny.2 mph39%30.12 "Hg10 mi
7:20 PM64 °FPassing clouds.6 mph37%30.12 "HgN/A
6:50 PM64 °FPassing clouds.6 mph37%30.12 "HgN/A
6:20 PM66 °FPassing clouds.7 mph35%30.12 "HgN/A
5:50 PM66 °FSunny.7 mph35%30.12 "Hg10 mi
5:20 PM66 °FPassing clouds.8 mph37%30.12 "HgN/A
4:50 PM66 °FSunny.8 mph37%30.12 "Hg10 mi
4:20 PM66 °FPassing clouds.6 mph37%30.12 "HgN/A
3:50 PM66 °FPassing clouds.9 mph37%30.12 "HgN/A
3:20 PM66 °FPassing clouds.10 mph37%30.12 "HgN/A
2:50 PM64 °FPassing clouds.10 mph40%30.12 "HgN/A
2:20 PM64 °FPassing clouds.10 mph43%30.12 "HgN/A
1:50 PM63 °FPassing clouds.10 mph42%30.12 "HgN/A
1:20 PM63 °FSunny.12 mph42%30.15 "Hg10 mi
12:50 PM63 °FSunny.12 mph42%30.15 "Hg10 mi
12:20 PM61 °FPassing clouds.10 mph45%30.15 "HgN/A
11:50 AM59 °FPassing clouds.13 mph45%30.15 "HgN/A
11:20 AM59 °FPassing clouds.12 mph45%30.15 "HgN/A
10:50 AM57 °FSunny.14 mph48%30.15 "Hg10 mi
10:20 AM57 °FSunny.14 mph51%30.15 "Hg10 mi
9:50 AM57 °FSunny.13 mph51%30.15 "Hg10 mi
9:20 AM54 °FSunny.14 mph54%30.15 "Hg10 mi
Weather by CustomWeather, © 2014

See weather overview